Rochester/St. Mary\'s Hospita, MN

8:33 PM CST on December 09, 2019 (GMT -0600)
Rochester/St. Mary\'s Hospita

Weather History for K9MN - October, 2019

Change the Weather History Date:

Monday, October 21, 2019

  Actual Average (WUND) Record (WUND)
Temperature  
Mean Temperature 48 °F -  
Max Temperature 57 °F - - (-1)
Min Temperature 41 °F - - (-1)
Degree Days  
Heating Degree Days 16    
Moisture  
Dew Point 45 °F    
Average Humidity 86    
Maximum Humidity 100    
Minimum Humidity 56    
Precipitation  
Precipitation 0.99 in - - ()
Sea Level Pressure  
Sea Level Pressure 29.34 in    
Wind  
Wind Speed 9 mph (SE)    
Max Wind Speed 20 mph    
Max Gust Speed 30 mph    
Visibility 8 miles    
Events      
Averages and records for this station are not official NWS values.
T = Trace of Precipitation, MM = Missing Value Source: NWS Daily Summary

Daily Weather History Graph

Daily Weather History Graph

Search for Another Location

Airport or City:

Astronomy

Oct. 21, 2019 Rise Set
Actual Time 7:31 AM CDT 6:16 PM CDT
Civil Twilight 7:02 AM CDT 6:45 PM CDT
Nautical Twilight 6:28 AM CDT 7:19 PM CDT
Astronomical Twilight 5:55 AM CDT 7:52 PM CDT
Moon No Moon Rise 2:57 PM CDT (10/21)
Length of Visible Light 11h 43m
Length of Day
10h 44m
Waning Gibbous, 48% of the Moon is Illuminated
Oct 21
Waning Gibbous
Oct 27
New
Nov 4
First Quarter
Nov 12
Full
Nov 19
Last Quarter

Hourly Weather History & Observations

Time (CDT) Temp. Windchill Dew Point Humidity Pressure Visibility Wind Dir Wind Speed Gust Speed Precip Events Conditions
12:15 AM 52.7 °F - 45.7 °F 77% 29.77 in 10.0 mi East 6.9 mph - N/A   Mostly Cloudy
12:16 AM 52.7 °F - 45.5 °F 76% 29.77 in 10.0 mi East 6.9 mph - N/A   Mostly Cloudy
12:35 AM 53.2 °F - 45.1 °F 74% 29.75 in 10.0 mi East 8.1 mph - N/A   Mostly Cloudy
12:36 AM 53.2 °F - 45.1 °F 74% 29.75 in 10.0 mi East 6.9 mph - N/A   Mostly Cloudy
12:55 AM 53.6 °F - 44.1 °F 70% 29.74 in 10.0 mi ESE 11.5 mph 17.3 mph N/A   Overcast
1:15 AM 54.0 °F - 43.7 °F 68% 29.72 in 10.0 mi East 10.4 mph 16.1 mph N/A   Overcast
1:35 AM 53.6 °F - 43.2 °F 68% 29.70 in 10.0 mi East 8.1 mph 16.1 mph N/A   Overcast
1:36 AM 53.6 °F - 43.2 °F 68% 29.70 in 10.0 mi ESE 9.2 mph - N/A   Overcast
1:55 AM 53.6 °F - 42.1 °F 65% 29.69 in 10.0 mi East 10.4 mph 19.6 mph N/A   Overcast
1:56 AM 53.6 °F - 42.1 °F 65% 29.69 in 10.0 mi East 10.4 mph 19.6 mph N/A   Overcast
2:15 AM 53.4 °F - 41.4 °F 64% 29.70 in 10.0 mi ESE 11.5 mph 17.3 mph N/A   Overcast
2:35 AM 53.2 °F - 40.6 °F 62% 29.70 in 10.0 mi ESE 12.7 mph 23.0 mph N/A   Overcast
2:55 AM 53.1 °F - 39.2 °F 59% 29.66 in 10.0 mi East 8.1 mph 19.6 mph N/A   Overcast
2:56 AM 53.1 °F - 39.2 °F 59% 29.66 in 10.0 mi East 10.4 mph 19.6 mph N/A   Overcast
3:16 AM 53.4 °F - 37.9 °F 56% 29.65 in 10.0 mi East 12.7 mph 20.7 mph N/A   Overcast
3:35 AM 52.9 °F - 37.8 °F 56% 29.63 in 10.0 mi East 11.5 mph 17.3 mph N/A   Overcast
3:55 AM 52.3 °F - 39.0 °F 61% 29.61 in 10.0 mi East 9.2 mph 17.3 mph N/A   Overcast
4:15 AM 50.7 °F - 40.5 °F 68% 29.60 in 10.0 mi East 8.1 mph - N/A   Overcast
4:16 AM 50.7 °F - 40.6 °F 68% 29.60 in 10.0 mi East 6.9 mph - N/A   Overcast
4:35 AM 51.1 °F - 40.6 °F 67% 29.57 in 10.0 mi East 5.8 mph - N/A   Overcast
4:36 AM 51.1 °F - 40.6 °F 67% 29.57 in 10.0 mi East 8.1 mph - N/A   Overcast
4:55 AM 50.9 °F - 40.5 °F 67% 29.55 in 10.0 mi East 6.9 mph - N/A   Overcast
5:15 AM 49.8 °F - 41.4 °F 73% 29.54 in 7.0 mi East 6.9 mph - 0.01 in   Overcast
5:35 AM 48.2 °F - 43.3 °F 83% 29.53 in 3.0 mi East 5.8 mph - 0.07 in   Overcast
5:36 AM 48.2 °F - 43.5 °F 84% 29.53 in 3.0 mi ENE 8.1 mph - 0.08 in   Overcast
5:55 AM 47.5 °F - 44.6 °F 90% 29.51 in 7.0 mi ENE 8.1 mph - 0.10 in   Overcast
5:56 AM 47.5 °F - 44.6 °F 90% 29.50 in 7.0 mi East 8.1 mph - 0.10 in   Overcast
6:15 AM 46.9 °F - 45.1 °F 93% 29.47 in 5.0 mi ENE 8.1 mph - 0.03 in   Overcast
6:35 AM 46.9 °F - 45.9 °F 96% 29.45 in 2.5 mi ENE 6.9 mph - 0.10 in   Overcast
6:55 AM 47.5 °F - 46.9 °F 98% 29.43 in 7.0 mi ENE 11.5 mph - 0.12 in   Overcast
6:56 AM 47.5 °F - 46.9 °F 98% 29.43 in 7.0 mi ENE 9.2 mph - 0.13 in   Overcast
7:16 AM 48.0 °F - 48.0 °F 100% 29.41 in 7.0 mi East 3.5 mph - 0.02 in   Overcast
7:35 AM 48.4 °F - 48.6 °F 100% 29.39 in 5.0 mi East 4.6 mph - 0.05 in   Overcast
7:55 AM - - - N/A% 29.38 in 4.0 mi ESE 3.5 mph - 0.09 in   Overcast
8:15 AM 49.1 °F - 49.3 °F 100% 29.36 in 5.0 mi East 8.1 mph - N/A   Overcast
8:16 AM 49.3 °F - 49.5 °F 100% 29.36 in 5.0 mi East 8.1 mph - N/A   Overcast
8:35 AM 49.6 °F - 50.0 °F 100% 29.35 in 4.0 mi ESE 9.2 mph - 0.04 in   Overcast
8:36 AM 49.6 °F - 50.0 °F 100% 29.35 in 4.0 mi ESE 8.1 mph - 0.05 in   Overcast
8:55 AM 50.0 °F - 50.2 °F 100% 29.33 in 4.0 mi ESE 9.2 mph 19.6 mph 0.10 in   Overcast
9:15 AM 50.0 °F - 50.2 °F 100% 29.31 in 4.0 mi East 11.5 mph 18.4 mph 0.04 in   Overcast
9:35 AM 50.2 °F - 50.4 °F 100% 29.29 in 7.0 mi East 8.1 mph 17.3 mph 0.09 in   Overcast
9:36 AM 50.2 °F - 50.4 °F 100% 29.29 in 7.0 mi East 8.1 mph 17.3 mph 0.09 in   Overcast
9:55 AM 50.2 °F - 50.4 °F 100% 29.27 in 4.0 mi ENE 8.1 mph - 0.16 in   Overcast
9:56 AM 50.2 °F - 50.4 °F 100% 29.26 in 4.0 mi ENE 8.1 mph - 0.17 in   Overcast
10:15 AM 50.4 °F - 50.5 °F 100% 29.25 in 7.0 mi East 9.2 mph - 0.03 in   Overcast
10:35 AM 50.4 °F - 50.5 °F 100% 29.24 in 2.5 mi ESE 9.2 mph - 0.12 in   Overcast
10:55 AM 48.4 °F - 48.6 °F 100% 29.26 in 1.0 mi South 8.1 mph 29.9 mph 0.28 in   Overcast
10:56 AM 48.4 °F - 48.6 °F 100% 29.26 in 1.0 mi South 9.2 mph - 0.28 in   Overcast
11:15 AM - - - N/A% 29.24 in 7.0 mi SSE 4.6 mph - 0.03 in   Overcast
11:16 AM - - - N/A% 29.24 in 7.0 mi South 4.6 mph - 0.03 in   Overcast
11:35 AM 49.1 °F - 49.1 °F 100% 29.23 in 10.0 mi SE 6.9 mph - 0.04 in   Overcast
11:55 AM 49.5 °F - 49.8 °F 100% 29.21 in 10.0 mi East 5.8 mph - 0.05 in   Overcast
11:56 AM 49.5 °F - 49.6 °F 100% 29.21 in 10.0 mi East 5.8 mph - 0.05 in   Overcast
12:15 PM 50.0 °F - 50.0 °F 100% 29.18 in 10.0 mi South 5.8 mph - N/A   Mostly Cloudy
12:16 PM 50.0 °F - 50.2 °F 100% 29.19 in 10.0 mi South 8.1 mph - N/A   Mostly Cloudy
12:35 PM 51.1 °F - 51.3 °F 100% 29.19 in 10.0 mi SSW 3.5 mph - N/A   Mostly Cloudy
12:55 PM 52.9 °F - 50.9 °F 93% 29.18 in 10.0 mi SSE 3.5 mph - N/A   Mostly Cloudy
1:15 PM 53.8 °F - 50.4 °F 88% 29.18 in 10.0 mi SSW 8.1 mph - N/A   Mostly Cloudy
1:16 PM 54.0 °F - 50.2 °F 87% 29.18 in 10.0 mi SSW 9.2 mph - N/A   Overcast
1:35 PM 53.6 °F - 48.4 °F 82% 29.18 in 10.0 mi South 10.4 mph - N/A   Overcast
1:55 PM 55.8 °F - 49.1 °F 78% 29.17 in 10.0 mi SSW 10.4 mph - N/A   Mostly Cloudy
2:15 PM 56.1 °F - 48.6 °F 76% 29.16 in 10.0 mi SSW 13.8 mph 21.9 mph N/A   Overcast
2:35 PM 56.3 °F - 49.6 °F 78% 29.16 in 10.0 mi South 5.8 mph - N/A   Mostly Cloudy
2:36 PM 56.5 °F - 49.8 °F 78% 29.16 in 10.0 mi South 8.1 mph - N/A   Mostly Cloudy
2:55 PM 56.3 °F - 49.1 °F 77% 29.15 in 10.0 mi South 8.1 mph 16.1 mph N/A   Mostly Cloudy
3:15 PM 56.8 °F - 46.4 °F 68% 29.15 in 10.0 mi SSW 13.8 mph 23.0 mph N/A   Mostly Cloudy
3:35 PM 55.2 °F - 46.6 °F 73% 29.17 in 10.0 mi SSW 19.6 mph 29.9 mph N/A   Overcast
3:36 PM 54.9 °F - 46.4 °F 73% 29.17 in 10.0 mi SSW 18.4 mph 29.9 mph N/A   Overcast
3:55 PM 49.6 °F - 46.6 °F 89% 29.18 in 7.0 mi SSW 17.3 mph 29.9 mph 0.02 in   Overcast
3:56 PM 49.5 °F - 46.6 °F 90% 29.18 in 7.0 mi SSW 12.7 mph 29.9 mph 0.02 in   Overcast
4:15 PM 49.6 °F - 47.5 °F 92% 29.19 in 10.0 mi South 11.5 mph 20.7 mph N/A   Overcast
4:35 PM 51.4 °F - 48.4 °F 89% 29.19 in 10.0 mi SSW 11.5 mph 24.2 mph N/A   Overcast
4:55 PM 50.9 °F - 46.8 °F 86% 29.20 in 10.0 mi South 16.1 mph 25.3 mph N/A   Overcast
4:56 PM 50.9 °F - 46.6 °F 85% 29.20 in 10.0 mi South 13.8 mph 25.3 mph N/A   Overcast
5:15 PM 50.5 °F - 45.5 °F 83% 29.21 in 10.0 mi South 16.1 mph 27.6 mph N/A   Overcast
5:55 PM 49.8 °F - 44.8 °F 83% 29.21 in 10.0 mi South 11.5 mph 20.7 mph N/A   Overcast
5:56 PM 49.6 °F - 44.8 °F 83% 29.21 in 10.0 mi South 11.5 mph 20.7 mph N/A   Overcast
6:15 PM 48.6 °F - 45.5 °F 89% 29.20 in 10.0 mi SSE 12.7 mph 24.2 mph N/A   Overcast
6:16 PM 48.6 °F - 45.5 °F 89% 29.21 in 10.0 mi SSE 11.5 mph 24.2 mph N/A   Overcast
6:35 PM 48.6 °F - 45.5 °F 89% 29.21 in 10.0 mi SSW 11.5 mph 20.7 mph N/A   Overcast
6:55 PM 46.6 °F - 42.4 °F 85% 29.21 in 5.0 mi SSW 13.8 mph 28.8 mph 0.03 in   Overcast
7:15 PM 45.7 °F 39.5 °F 43.5 °F 92% 29.21 in 7.0 mi South 13.8 mph 21.9 mph N/A   Overcast
7:16 PM 45.7 °F 39.1 °F 43.5 °F 92% 29.21 in 7.0 mi South 15.0 mph 21.9 mph 0.01 in   Overcast
7:35 PM 46.0 °F 40.2 °F 44.4 °F 94% 29.21 in 10.0 mi South 12.7 mph 20.7 mph 0.01 in   Overcast
7:55 PM 46.0 °F 40.6 °F 44.1 °F 93% 29.20 in 10.0 mi South 11.5 mph 21.9 mph 0.01 in   Overcast
8:15 PM 45.5 °F 39.2 °F 44.1 °F 95% 29.19 in 7.0 mi SSW 13.8 mph 25.3 mph N/A   Overcast
8:16 PM 45.5 °F 39.6 °F 44.1 °F 95% 29.19 in 7.0 mi SSW 12.7 mph 25.3 mph N/A   Overcast
8:35 PM 43.5 °F 37.9 °F 41.9 °F 94% 29.19 in 10.0 mi South 10.4 mph 21.9 mph N/A   Overcast
8:36 PM 43.5 °F 37.5 °F 41.9 °F 94% 29.19 in 10.0 mi South 11.5 mph 21.9 mph N/A   Overcast
8:55 PM 43.2 °F 37.9 °F 41.2 °F 93% 29.19 in 10.0 mi South 9.2 mph 17.3 mph N/A   Mostly Cloudy
9:15 PM 43.3 °F 36.8 °F 41.4 °F 93% 29.18 in 10.0 mi SSW 12.7 mph 18.4 mph N/A   Overcast
9:35 PM 43.3 °F 38.6 °F 41.9 °F 95% 29.17 in 10.0 mi South 8.1 mph - N/A   Overcast
9:55 PM 42.4 °F 34.7 °F 41.0 °F 95% 29.17 in 10.0 mi SSW 16.1 mph 24.2 mph N/A   Overcast
9:56 PM 42.4 °F 35.3 °F 40.8 °F 94% 29.17 in 10.0 mi SSW 13.8 mph 24.2 mph N/A   Overcast
10:15 PM 42.1 °F 36.6 °F 41.0 °F 96% 29.17 in 10.0 mi South 9.2 mph 16.1 mph N/A   Overcast
10:35 PM 41.9 °F 36.9 °F 41.0 °F 97% 29.16 in 10.0 mi South 8.1 mph - N/A   Overcast
10:36 PM 41.7 °F 36.1 °F 40.8 °F 97% 29.16 in 10.0 mi South 9.2 mph - N/A   Overcast
10:55 PM 41.4 °F 36.2 °F 40.6 °F 97% 29.16 in 10.0 mi SSE 8.1 mph - 0.01 in   Overcast
10:56 PM 41.4 °F 35.7 °F 40.6 °F 97% 29.16 in 10.0 mi South 9.2 mph - 0.01 in   Overcast
11:15 PM 41.0 °F 36.4 °F 40.6 °F 99% 29.16 in 10.0 mi SSE 6.9 mph - N/A   Overcast
11:35 PM 41.0 °F 37.1 °F 41.0 °F 100% 29.15 in 10.0 mi SSE 5.8 mph - N/A   Overcast
11:55 PM 41.0 °F 37.1 °F 41.0 °F 100% 29.15 in 5.0 mi SSE 5.8 mph - N/A   Overcast
11:56 PM 41.0 °F 37.1 °F 41.0 °F 100% 29.15 in 4.0 mi SSE 5.8 mph - N/A   Overcast